Location: Betz
(49.1556°N, 2.9558°E)
Time: 13:40:14
(UTC+00:00)

Cosmos 1461 - Pass Details

Date: 18 September 2019
Orbit: 525 x 642 km, 65.0° (Epoch: 18 October)

Event Time Altitude Azimuth Distance (km) Brightness Sun altitude
Rises 19:46:32 0° 239° (WSW) 2,679 6.8 -18.3°
Reaches altitude 10° 19:48:50 10° 248° (WSW) 1,781 6.0 -18.7°
Maximum altitude 19:52:33 38° 317° (NW) 826 4.2 -19.2°
Drops below altitude 10° 19:56:16 10° 27° (NNE) 1,776 5.4 -19.7°
Sets 19:58:35 0° 36° (NE) 2,671 6.3 -20.1°
